This is the latest recevied weather packets stored in our database for station/object N5GC-2. If no packets are shown the sender has not sent any weather packets the latest 1 day(s).
| Time | Temp. | Humidity | Pressure | Rain* | Wind** | Luminosity | Snow |
|---|---|---|---|---|---|---|---|
| 1778054286 | 10.56° C | 93% | - | 0 mm | - | - | - |
| 1778053680 | 10.56° C | 94% | - | 0 mm | - | - | - |
| 1778053377 | 10.56° C | 93% | - | 0 mm | - | - | - |
| 1778053075 | 10.56° C | 94% | - | 0 mm | - | - | - |
| 1778052772 | 10.56° C | 94% | - | 0 mm | - | - | - |
| 1778052469 | 11.11° C | 93% | - | 0 mm | - | - | - |
| 1778051864 | 11.11° C | 93% | - | 0 mm | - | - | - |
| 1778051562 | 11.11° C | 93% | - | 0 mm | - | - | - |
| 1778050350 | 11.67° C | 93% | - | 0 mm | - | - | - |
| 1778048836 | 12.22° C | 93% | - | 0 mm | - | - | - |
| 1778047926 | 12.22° C | 93% | - | 0 mm | - | - | - |
| 1778047321 | 12.78° C | 93% | - | 0 mm | - | - | - |
| 1778047018 | 12.78° C | 93% | - | 0 mm | - | - | - |
| 1778046715 | 12.78° C | 93% | - | 0 mm | - | - | - |
| 1778046412 | 12.78° C | 93% | - | 0 mm | - | - | - |
| 1778046108 | 12.78° C | 93% | - | 0 mm | - | - | - |
| 1778045504 | 13.33° C | 93% | - | 0 mm | - | - | - |
| 1778045202 | 13.89° C | 93% | - | 1.78 mm | - | - | - |
| 1778044900 | 13.89° C | 92% | - | 12.7 mm | - | - | - |
| 1778044597 | 13.89° C | 92% | - | 16.26 mm | - | - | - |
| 1778044293 | 14.44° C | 92% | - | 7.11 mm | - | - | - |
| 1778043688 | 15° C | 90% | - | 1.78 mm | - | - | - |
| 1778043385 | 15.56° C | 89% | - | 0 mm | - | - | - |
| 1778042476 | 16.67° C | 85% | - | 0 mm | - | - | - |
| 1778042173 | 17.22° C | 85% | - | 0 mm | - | - | - |
* Rain latest hour (hover to see other rain measurements)
** Current wind speed in m/s (hover to see current wind gust speed)